TITAN 34D TRANSTAGE DEB, 25587

Orbit data source: Space-Track

TITAN 34D TRANSTAGE DEB, 25587 is space debris in HEO originally from a launch on Fri, 02 Sep 1988 UTC launched from the Air Force Eastern Test Range (AFETR). Debris objects in space refer to the collection of defunct objects orbiting the Earth. Examples of debris include non-operational satellites, rocket bodies, and fragments generated from explosions, collisions, or faulty payload assembly.

Loading next visibility...
Identifier
25587, 1988-077S
Orbit
HEO
Country
Flag of USUS
Related business
Manufacturer
Unknown
Mission
Spacecraft
Bus & Motor
Unknown
Mass
Unknown
Launch date (UTC)
1988-09-02 (38 years ago)
Launch vehicle
Unknown
Launch site
Air Force Eastern Test Range (AFETR)
Object type
Payload
Rocket body
Debris
Shape & HBR
Unknown shape, 0.4 m
Radar Cross Section
Medium (>0.1 m² and <1 m²)

Expand to show TLE details & history
Last TLE update: 3 days ago

TLE from 3 days ago
0 TITAN 34D TRANSTAGE DEB
1 25587U 88077S   26170.21175492 -.00000056  00000-0 -76148-4 0  9997
2 25587  27.2906 258.0369 5505440  72.0878 338.6282  4.55034273114701
Epoch: 2026-06-19T05:04Z
TLE epoch observation values (Epoch: 2026-06-19T05:04:55.625Z)
Latitude
0.00004°
Longitude
-85.6094°
Altitude
2,785.301 km
Speed
7.816 km/s
True Right ascension
17h 12m 15s
True Declination
0° 00' 00"
Sunlit
Object was in full shadow at epoch
Visualization orbit readout
Latitude
Unknown
Longitude
Unknown
Altitude
Unknown
Speed
Unknown
Apparent Right ascension
Unknown
Apparent Declination
Unknown
Sunlit
N/A
Visualization observer readout
Local Sidereal Time
00:39:51
Azimuth
Unknown
Elevation
Unknown
Doppler factor
Unknown
Orbital elements
Apogee altitude
17,479.015 km
Perigee altitude
537.333 km
Semi-major axis
15,386.311 km
Eccentricity
0.55054
Inclination
27.2906°
RAAN
258.0369°
Arg. of periapsis
72.0878°
True anomaly
287.88922°
Mean anomaly
338.6282°
Eccentric anomaly
317.1933°
Mean motion
1.13721 °/min
Orbital period
316.56 mins
BSTAR
-0.000076148
Loading maneuver chart data...
Computing Atmospheric mass density...

Documentation

Showing up to 5 results
|